Change the Weather History Date:

Sunday, February 23, 2014

  Actual Average Record
Temperature  
Mean Temperature 22 °F -  
Max Temperature 27 °F 35 °F 44 °F (1998)
Min Temperature 16 °F 20 °F -12 °F (2015)
Degree Days  
Heating Degree Days 44    
Moisture  
Dew Point 11 °F    
Average Humidity 65    
Maximum Humidity 79    
Minimum Humidity 51    
Precipitation  
Precipitation 0.00 in - - ()
Sea Level Pressure  
Sea Level Pressure 30.00 in    
Wind  
Wind Speed 11 mph (WSW)    
Max Wind Speed 23 mph    
Max Gust Speed 29 mph    
Visibility 10 miles    
Events      
Averages and records for this station are not official NWS values.
T = Trace of Precipitation, MM = Missing Value Source: NWS Daily Summary

Daily Weather History Graph

Daily Weather History Graph

Search for Another Location

Airport or City:

Trip Planner

Search our weather history database for the weather conditions in past years. The results will help you decide how hot, cold, wet, or windy it might be!

Date:

Astronomy

Feb. 23, 2014 Rise Set
Actual Time 7:21 AM EST 6:18 PM EST
Civil Twilight 6:52 AM EST 6:46 PM EST
Nautical Twilight 6:19 AM EST 7:19 PM EST
Astronomical Twilight 5:47 AM EST 7:52 PM EST
Moon 2:22 AM EST (2/23) 12:15 PM EST (2/23)
Length of Visible Light 11h 54m
Length of Day
10h 57m
Last Quarter, 39% of the Moon is Illuminated
Feb 23
Last Quarter
Mar 1
New
Mar 8
First Quarter
Mar 16
Full
Mar 23
Last Quarter

Hourly Weather History & Observations

Time (EST) Temp. Windchill Dew Point Humidity Pressure Visibility Wind Dir Wind Speed Gust Speed Precip Events Conditions
12:15 AM 26.6 °F 17.5 °F 13.8 °F 59% 29.95 in 10.0 mi West 9.2 mph - N/A   Clear
12:35 AM 26.2 °F 16.4 °F 13.6 °F 59% 29.95 in 10.0 mi West 10.4 mph - N/A   Clear
12:55 AM 25.5 °F 15.5 °F 13.6 °F 61% 29.95 in 10.0 mi West 10.4 mph - N/A   Clear
1:15 AM 25.3 °F 15.3 °F 13.3 °F 60% 29.95 in 10.0 mi West 10.4 mph - N/A   Clear
1:35 AM 24.8 °F 15.3 °F 13.1 °F 61% 29.95 in 10.0 mi West 9.2 mph - N/A   Clear
1:55 AM 23.9 °F 14.2 °F 13.1 °F 63% 29.95 in 10.0 mi West 9.2 mph - N/A   Clear
2:15 AM 23.2 °F 13.3 °F 13.1 °F 65% 29.95 in 10.0 mi West 9.2 mph - N/A   Clear
2:35 AM 21.6 °F 12.1 °F 12.7 °F 69% 29.95 in 10.0 mi West 8.1 mph - N/A   Clear
2:55 AM 21.6 °F 12.1 °F 12.7 °F 69% 29.95 in 10.0 mi West 8.1 mph - N/A   Clear
3:15 AM 20.8 °F 12.1 °F 12.2 °F 69% 29.95 in 10.0 mi West 6.9 mph - N/A   Clear
3:35 AM 20.7 °F 11.9 °F 12.2 °F 70% 29.96 in 10.0 mi West 6.9 mph - N/A   Clear
3:55 AM 20.1 °F 11.3 °F 12.2 °F 71% 29.96 in 10.0 mi West 6.9 mph - N/A   Clear
4:15 AM 19.6 °F 10.6 °F 12.0 °F 72% 29.96 in 10.0 mi West 6.9 mph - N/A   Clear
4:35 AM 19.4 °F 10.4 °F 12.2 °F 74% 29.96 in 10.0 mi West 6.9 mph - N/A   Clear
4:55 AM 18.3 °F 10.2 °F 11.3 °F 74% 29.96 in 10.0 mi West 5.8 mph - N/A   Clear
5:15 AM 18.1 °F 10.0 °F 11.7 °F 76% 29.96 in 10.0 mi West 5.8 mph - N/A   Clear
5:35 AM 17.2 °F 7.8 °F 11.1 °F 77% 29.98 in 10.0 mi WSW 6.9 mph - N/A   Clear
5:55 AM 16.7 °F 8.3 °F 10.8 °F 77% 29.99 in 10.0 mi WSW 5.8 mph - N/A   Clear
6:15 AM 17.4 °F 8.0 °F 11.3 °F 77% 30.00 in 10.0 mi West 6.9 mph - N/A   Clear
6:35 AM 16.7 °F 7.2 °F 11.1 °F 79% 30.00 in 10.0 mi West 6.9 mph - N/A   Clear
6:55 AM 17.4 °F 8.0 °F 11.3 °F 77% 30.00 in 10.0 mi WSW 6.9 mph - N/A   Clear
7:15 AM 17.2 °F 7.8 °F 11.3 °F 78% 30.01 in 10.0 mi WSW 6.9 mph - N/A   Clear
7:35 AM 17.6 °F 7.3 °F 11.7 °F 78% 30.00 in 10.0 mi WSW 8.1 mph - N/A   Clear
7:55 AM 17.6 °F 7.3 °F 11.7 °F 78% 30.02 in 10.0 mi West 8.1 mph - N/A   Clear
8:15 AM 17.6 °F 6.4 °F 11.7 °F 78% 30.03 in 10.0 mi WSW 9.2 mph - N/A   Clear
8:35 AM 18.9 °F 7.2 °F 12.4 °F 76% 30.03 in 10.0 mi WSW 10.4 mph - N/A   Clear
8:55 AM 19.0 °F 8.2 °F 12.7 °F 76% 30.04 in 10.0 mi WSW 9.2 mph - N/A   Clear
9:15 AM 19.4 °F 7.9 °F 12.9 °F 76% 30.04 in 10.0 mi West 10.4 mph 16.1 mph N/A   Clear
9:35 AM 19.8 °F 7.7 °F 13.1 °F 75% 30.04 in 10.0 mi West 11.5 mph - N/A   Clear
9:55 AM 20.1 °F 5.4 °F 13.1 °F 74% 30.04 in 10.0 mi West 17.3 mph 20.7 mph N/A   Clear
10:15 AM 21.0 °F 7.1 °F 13.6 °F 73% 30.04 in 10.0 mi West 16.1 mph 21.9 mph N/A   Clear
10:35 AM 21.4 °F 7.5 °F 13.3 °F 71% 30.03 in 10.0 mi West 16.1 mph 23.0 mph N/A   Clear
10:55 AM 22.1 °F 9.5 °F 13.1 °F 68% 30.03 in 10.0 mi West 13.8 mph - N/A   Clear
11:15 AM 23.0 °F 9.6 °F 13.1 °F 66% 30.03 in 10.0 mi West 16.1 mph 19.6 mph N/A   Clear
11:35 AM 23.7 °F 10.1 °F 13.1 °F 64% 30.03 in 10.0 mi WSW 17.3 mph 23.0 mph N/A   Clear
11:55 AM 23.9 °F 11.2 °F 12.2 °F 61% 30.03 in 10.0 mi West 15.0 mph 23.0 mph N/A   Clear
12:15 PM 24.8 °F 11.9 °F 13.8 °F 63% 30.03 in 10.0 mi WSW 16.1 mph 20.7 mph N/A   Clear
12:35 PM 24.8 °F 12.4 °F 13.5 °F 62% 30.02 in 10.0 mi WSW 15.0 mph - N/A   Clear
12:55 PM 25.3 °F 13.6 °F 14.2 °F 63% 30.02 in 10.0 mi WSW 13.8 mph 20.7 mph N/A   Clear
1:15 PM 25.3 °F 12.2 °F 13.6 °F 61% 30.02 in 10.0 mi WSW 17.3 mph 24.2 mph N/A   Scattered Clouds
1:35 PM 26.1 °F 13.1 °F 13.6 °F 59% 30.01 in 10.0 mi West 17.3 mph 25.3 mph N/A   Clear
1:55 PM 26.6 °F 14.7 °F 14.0 °F 59% 30.01 in 10.0 mi WSW 15.0 mph 21.9 mph N/A   Clear
2:15 PM 26.8 °F 14.9 °F 14.0 °F 59% 30.01 in 10.0 mi WSW 15.0 mph 20.7 mph N/A   Clear
2:34 PM 27.1 °F 13.4 °F 13.1 °F 56% 30.01 in 10.0 mi West 20.7 mph - N/A   Clear
2:55 PM 26.6 °F 13.8 °F 11.7 °F 53% 30.00 in 10.0 mi West 17.3 mph 23.0 mph N/A   Clear
3:15 PM 26.6 °F 13.4 °F 10.4 °F 51% 30.00 in 10.0 mi West 18.4 mph 23.0 mph N/A   Clear
3:34 PM 26.6 °F 13.4 °F 10.8 °F 51% 30.00 in 10.0 mi West 18.4 mph 24.2 mph N/A   Clear
3:55 PM 26.4 °F 11.8 °F 10.6 °F 51% 30.01 in 10.0 mi West 23.0 mph - N/A   Clear
4:15 PM 26.2 °F 13.4 °F 10.2 °F 51% 30.01 in 10.0 mi West 17.3 mph 24.2 mph N/A   Clear
4:35 PM 25.7 °F 12.3 °F 10.0 °F 52% 30.01 in 10.0 mi West 18.4 mph 28.8 mph N/A   Clear
4:55 PM 25.2 °F 12.4 °F 9.7 °F 52% 30.01 in 10.0 mi West 16.1 mph 24.2 mph N/A   Clear
5:15 PM 24.6 °F 10.9 °F 9.1 °F 52% 30.01 in 10.0 mi West 18.4 mph 27.6 mph N/A   Clear
5:35 PM 24.3 °F 11.2 °F 8.2 °F 51% 30.01 in 10.0 mi West 16.1 mph - N/A   Clear
5:55 PM 23.5 °F 9.9 °F 8.2 °F 52% 30.01 in 10.0 mi West 17.3 mph 24.2 mph N/A   Clear
6:14 PM 22.6 °F 11.3 °F 8.1 °F 54% 30.01 in 10.0 mi West 11.5 mph 18.4 mph N/A   Clear
6:35 PM 21.7 °F 8.5 °F 7.7 °F 55% 30.02 in 10.0 mi West 15.0 mph 23.0 mph N/A   Clear
6:55 PM 20.8 °F 7.9 °F 7.5 °F 56% 30.02 in 10.0 mi West 13.8 mph 17.3 mph N/A   Clear
7:15 PM 20.1 °F 8.1 °F 7.7 °F 59% 30.02 in 10.0 mi West 11.5 mph 17.3 mph N/A   Clear
7:35 PM 19.2 °F 8.4 °F 7.7 °F 61% 30.02 in 10.0 mi WSW 9.2 mph - N/A   Clear
7:55 PM 19.0 °F 6.8 °F 8.1 °F 62% 30.02 in 10.0 mi WSW 11.5 mph 17.3 mph N/A   Clear
8:15 PM 19.8 °F 7.7 °F 8.2 °F 61% 30.02 in 10.0 mi West 11.5 mph 17.3 mph N/A   Clear
8:35 PM 18.5 °F 6.1 °F 8.2 °F 64% 30.02 in 10.0 mi WSW 11.5 mph - N/A   Clear
8:55 PM 18.3 °F 5.9 °F 8.6 °F 66% 30.02 in 10.0 mi WSW 11.5 mph - N/A   Clear
9:15 PM 18.1 °F 7.9 °F 8.6 °F 66% 30.03 in 10.0 mi WSW 8.1 mph - N/A   Clear
9:35 PM 18.1 °F 6.3 °F 9.1 °F 68% 30.03 in 10.0 mi WSW 10.4 mph - N/A   Clear
9:55 PM 17.6 °F 6.4 °F 9.3 °F 70% 30.03 in 10.0 mi WSW 9.2 mph - N/A   Clear
10:15 PM 17.8 °F 5.9 °F 9.5 °F 70% 30.03 in 10.0 mi WSW 10.4 mph - N/A   Clear
10:35 PM 18.5 °F 7.5 °F 10.4 °F 71% 30.03 in 10.0 mi WSW 9.2 mph - N/A   Mostly Cloudy
10:55 PM 19.0 °F 8.2 °F 10.6 °F 70% 30.03 in 10.0 mi WSW 9.2 mph - N/A   Overcast
11:15 PM 19.2 °F 8.4 °F 10.8 °F 70% 30.02 in 10.0 mi WSW 9.2 mph - N/A   Overcast
11:35 PM 18.7 °F 8.6 °F 10.4 °F 70% 30.01 in 10.0 mi WSW 8.1 mph - N/A   Mostly Cloudy
11:55 PM 18.0 °F 7.7 °F 10.0 °F 71% 30.01 in 10.0 mi WSW 8.1 mph - N/A   Scattered Clouds